Regional Weather Roundup
Issued by NWS

Home | Current Version | Previous Version | Text Only | Print | Product List | Glossary Off
Versions: 1 2 3 4 5 6 7 8 9 10 11 12 13 14 15 16 17 18 19 20 21 22 23 24 25 26 27 28 29 30 31 32 33 34 35 36 37 38 39 40 41 42 43 44 45 46 47 48 49 50

000
ASUS43 KLOT 311500
RWRIL

ILLINOIS REGIONAL WEATHER ROUNDUP
NATIONAL WEATHER SERVICE CHICAGO/ROMEOVILLE IL
1000 AM CDT THU JUL 31 2014

NOTE: "FAIR" INDICATES FEW OR NO CLOUDS BELOW 12,000 FEET WITH NO
SIGNIFICANT WEATHER AND/OR OBSTRUCTIONS TO VISIBILITY.

* THESE STATIONS ARE NOT UNDER NWS QUALITY CONTROL. THEY ALSO MAY NOT
  REPORT WEATHER SUCH AS PRECIPITATION OR FOG.

ILZ001-002-007-009-015-016-024-311600-
NORTHWEST ILLINOIS

CITY           SKY/WX    TMP DP  RH WIND       PRES   REMARKS
MOLINE         SUNNY     74  62  66 W3        30.08S
STERLING*      MOSUNNY   72  63  73 NW7       30.08R
$$

ILZ003-004-008-010-011-017-018-311600-
NORTH CENTRAL ILLINOIS

CITY           SKY/WX    TMP DP  RH WIND       PRES   REMARKS
ROCKFORD       SUNNY     74  60  61 W6        30.06S
$$

ILZ005-006-012>014-019>023-311600-
NORTHEAST ILLINOIS

CITY           SKY/WX    TMP DP  RH WIND       PRES   REMARKS
CHICAGO-OHARE  SUNNY     75  57  53 W8        30.04R
CHICAGO-MIDWAY SUNNY     76  59  55 W12       30.04S
AURORA         SUNNY     73  60  63 SW10      30.06R
WAUKEGAN       SUNNY     73  60  63 VRB6      30.02S
DUPAGE AIRPORT SUNNY     74  60  61 SW9       30.05R
WHEELING       SUNNY     75  59  57 SW8       30.05R
NORTHERLY ISL    N/A     74  55  51 W7          N/A
$$

LMZ740>746-311600-
SOUTHERN LAKE MICHIGAN

STATION/POSITION SKY/WX   TEMP    WIND        PRES    VSBY  WAVE
                          AIR SEA DIR/SP/G                  HT/PER
                          (F)     (DEG/KT/KT) (MB)    (MI)  (FT/S)
SOUTHERN BUOY              62 60  250/  8/  8 1016.4R         1/ 3
WAUKEGAN HARBOR            71     260/  7/ 10   N/A
HARRISON CRIB              69     250/ 14/ 18   N/A
BURNHAM HARBOR             74     220/ 10       N/A
CALUMET HARBOR             73     230/  7/ 11 1016.1R
MICHIGAN CITY              68     200/  8/ 10   N/A
MICHIGAN CITY 6N           69 69  230/  8/ 10   N/A           1/ 3
ST. JOSEPH                 67 68  210/ 10/ 14   N/A           2/ 3
$$

ILZ025>027-034>036-040-047-049-050-058-095>099-311600-
WEST-CENTRAL ILLINOIS

CITY           SKY/WX    TMP DP  RH WIND       PRES   REMARKS
QUINCY         SUNNY     74  61  63 NW5       30.10F
$$

ILZ028>032-037-038-041>044-048-051>054-059>061-311600-
CENTRAL ILLINOIS

CITY           SKY/WX    TMP DP  RH WIND       PRES   REMARKS
DECATUR        SUNNY     74  63  68 SW6       30.10S
PEORIA         SUNNY     76  61  59 SW5       30.09S
SPRINGFIELD    SUNNY     75  62  64 W3        30.10S
TAYLORVILLE    NOT AVBL
$$

ILZ033-039-045-046-055>057-062-063-311600-
EAST-CENTRAL ILLINOIS

CITY           SKY/WX    TMP DP  RH WIND       PRES   REMARKS
CHAMPAIGN      SUNNY     72  65  78 SW5       30.10S
MATTOON        SUNNY     74  62  66 CALM      30.10S
$$

ILZ079-100>102-311600-
SOUTHWEST ILLINOIS

CITY           SKY/WX    TMP DP  RH WIND       PRES   REMARKS
BELLEVILLE     SUNNY     76  66  72 SE3       30.09S
CAHOKIA*       SUNNY     78  64  61 VRB3      30.10S HX  80
$$

ILZ064>066-069>071-074>076-080>082-084>086-088>090-092>094-311600-
SOUTH-CENTRAL ILLINOIS

CITY           SKY/WX    TMP DP  RH WIND       PRES   REMARKS
CARBONDALE     SUNNY     75  63  66 SE5       30.11S
MT. VERNON     SUNNY     73  64  73 S5        30.12S
$$

ILZ067-068-072-073-078-083-087-091-311600-
SOUTHEAST ILLINOIS

CITY           SKY/WX    TMP DP  RH WIND       PRES   REMARKS
LAWRENCEVILLE  SUNNY     76  63  64 CALM      30.11S
$$

ABBREVIATIONS USED IN REMARKS
   TC - TEMPERATURE IN CELSIUS
  WCI - WIND CHILL INDEX
   HX - HEAT INDEX
  VSB - VISIBILITY
$$



USA.gov is the U.S. government's official web portal to all federal, state and local government web resources and services.